Baseball 板


LINE

小熊今年拿冠军!! 小熊今年拿冠军!! 小熊今年拿冠军!! 小熊今年拿冠军!! Chicago St. Louis Cubs Jackson Fowler Soler Cardinals 1 Fowler Holliday Heyward Piscotty / 1 CarpenterSoler \     Russell Castro   /  2 PiscottyBryant Peralta Wong /   3 HollidayRizzo Bryant Rizzo  4 HeywardCastro Carpenter Moss  5 PeraltaJackson     \ Hendricks /      6 Moss Montero Garcia /     7 MolinaHendricks \   / WongRussell        \ /         9 Garcia Montero FOX Sports HD & 3 HD Molina 民视无线台与四季台 四台直播 五点半开打 小熊今年拿冠军!! 小熊今年拿冠军!! 小熊今年拿冠军!! 小熊今年拿冠军!! --



※ 发信站: 批踢踢实业坊(ptt.cc), 来自: 59.115.232.225
※ 文章网址: https://webptt.com/cn.aspx?n=bbs/Baseball/M.1444500987.A.247.html ※ 编辑: hicker (59.115.232.225), 10/11/2015 02:17:36
1F:推 abc06: 小熊今年拿冠军!! 10/11 02:18
2F:推 asdzxc1662: 推推 小熊拿冠军!! 10/11 02:18
3F:推 coon182: 小熊冲啊!!! 10/11 02:23
4F:推 loveinmars: 小熊今年拿冠军!!! 10/11 02:25
5F:推 dcshoecousa: 虽然不是小熊迷 但是今年支持小熊 10/11 02:27
6F:推 panypany: 小熊今年拿冠军!!!! 10/11 02:27
7F:推 earnformoney: 老大加油好吗 10/11 02:29
8F:→ qlz: 小熊今年拿冠军! 10/11 02:29
9F:推 angeltear15: 小熊拿冠军 10/11 02:32
10F:推 lmf770410: 小熊这场赢我给楼下五楼100P 来去睡...已晕 10/11 02:33
11F:推 hyjoly: 好 10/11 02:34
12F:推 hgs000sss: 好 10/11 02:34
13F:推 nainaiwen: 好 10/11 02:34
14F:推 mark2334567: 好 10/11 02:34
15F:推 INNBUG: THX 10/11 02:35
16F:推 jack801016: 好 10/11 02:35
17F:推 k66333: GO CUBS!! 10/11 02:38
18F:推 ttnakafzcm: CHC这场吃STL 我下面7楼每人100P 10/11 02:51
19F:推 TSbb: 好 10/11 02:52
20F:推 Konanson: 好 谢 10/11 02:52
21F:推 hsinya1015: 推 10/11 02:53
22F:推 needspace: 谢谢!ㄨ 10/11 02:53
23F:推 MeloKing: 好 10/11 02:54
24F:推 HKHK: 推 10/11 02:54
25F:推 copyflyN: push 10/11 02:55
26F:推 BigFly5566: Ok 10/11 02:55
27F:推 hunkin: 2015小熊拿冠军 10/11 03:07
28F:→ Rex3661: 小熊今年拿冠军! 10/11 03:11
29F:→ iceafu: 小熊今年拿冠军~~~~~~~~~~~~~~~~~~~~~~~~~ 10/11 03:13
30F:推 sediments: 好快 10/11 03:27
31F:推 laihom0808: 先看SH支不支持小熊吧XD 10/11 03:30
32F:推 reexamine: 小熊今年拿冠军! 10/11 03:52
33F:→ j3307002: 小熊今年拿冠军! 10/11 04:55
34F:推 FK84288: 2015小熊拿冠军 10/11 05:28
35F:推 liDong: LET's GO CHC!!! 10/11 05:29
36F:→ hicker: play ball!! 10/11 05:31
37F:推 asdfg5287: 开打罗 10/11 05:39
38F:→ asdfg5287: 游滚 10/11 05:39
39F:嘘 abc06: 2B 10/11 05:41
40F:推 asdfg5287: 二安 10/11 05:41
41F:推 dandanhanbau: 2B!!! 10/11 05:41
42F:推 st015600: 呵呵 10/11 05:42
43F:推 IRPT001: 老熊迷 10/11 05:43
44F:推 asdfg5287: k 10/11 05:44
45F:推 abc06: Laoda怒打一铁 10/11 05:45
46F:推 asdfg5287: kkkkkk 10/11 05:47
47F:推 qazzaq3977: 2015小熊迷报到 10/11 05:49
48F:推 qazzaq3977: ..... 10/11 05:51
49F:推 IRPT001: 凶 10/11 05:51
50F:推 flicker36: 不妙了 10/11 05:51
51F:推 abc06: GG 一开始就掉分 10/11 05:51
52F:推 buccos: Gone 10/11 05:51
53F:推 honafire: ZZZZZZZZZZZ 10/11 05:51
54F:推 gash8830: 红雀hr 10/11 05:51
55F:→ hicker: CHC 0:1 STL 10/11 05:51
56F:推 st015600: 干 被尻 10/11 05:52
57F:→ honafire: 球都偏高了 非常不妙@@ 10/11 05:52
58F:→ hicker: 而且是首打席炸裂....小熊士气下降20% 10/11 05:52
59F:推 dog23698: 不妙呀....又是先掉分,打线又一直打铁 10/11 05:52
60F:→ honafire: 压不住的感觉@@ 10/11 05:54
61F:→ hicker: 这球也是很危险....(冒冷汗) 10/11 05:54
62F:推 dandanhanbau: ZZZ 10/11 05:54
63F:→ IRPT001: 美技没重播 10/11 05:56
64F:→ hicker: 两颗星的一垒刺杀 换边 10/11 05:56
65F:推 dandanhanbau: 1B 10/11 05:59
66F:推 IRPT001: 王 10/11 06:01
67F:推 dandanhanbau: 中职? 10/11 06:02
68F:推 st015600: 手软???? 10/11 06:02
69F:推 Vincent8026: 克顿王 10/11 06:02
70F:推 dog23698: 这传球...... 10/11 06:02
71F:推 abc06: 又E 10/11 06:05
72F:推 freedomshit: XDDD 10/11 06:05
73F:→ abc06: 看本垒想杀 结果传一垒失误 10/11 06:06
74F:→ hicker: CHC 1:1 STL 10/11 06:06
75F:推 dandanhanbau: XDDDDDDDDDDD 中职化 10/11 06:06
76F:→ freedomshit: 被吓到了吗 投手强迫取分 10/11 06:06
77F:推 asdfg5287: 好惨 10/11 06:06
78F:推 dog23698: 小熊冠军!!小熊冠军!! 10/11 06:06
79F:推 thebig: 梅登!!! 10/11 06:06
80F:推 MrBigTree: 丞相起风辣 10/11 06:07
81F:推 pdr666333: 球迷傻眼 10/11 06:07
82F:推 tripler: 季後赛果然什麽事都会发生 XD 10/11 06:07
83F:推 richard1003: 惨 变一出局二三垒 10/11 06:07
84F:推 idtvgame: 红鸟自爆啦~ 10/11 06:07
85F:推 st015600: 传球又失误 zzzzzz 10/11 06:07
86F:→ hicker: 强迫取分追平 小熊使出[混乱] 士气上升20% 10/11 06:07
87F:→ hicker: CHC 2:1 STL 10/11 06:07
88F:推 asdfg5287: 再来一次 10/11 06:08
89F:推 abc06: 这2次传本垒都杀的到说 10/11 06:08
90F:推 MrBigTree: 强迫取分成功 10/11 06:08
91F:推 dandanhanbau: 小熊小球 10/11 06:08
92F:→ abc06: 内安 3:1 10/11 06:09
93F:推 richard1003: 第二次应该是没机会 10/11 06:09
94F:推 freedomshit: 水 10/11 06:09
95F:推 dog23698: 没有梅登做不到的调度 10/11 06:09
96F:→ hicker: CHC 3:1 STL 10/11 06:09
97F:→ asdfg5287: 哇塞 红鸟乱了 10/11 06:09
98F:→ nyyjeter8: 这三分 靠速度战术打出来的 XD 10/11 06:09
99F:推 pdr666333: 看到都笑了XD 10/11 06:09
100F:推 liDong: 我熊威武 冲啊!!!!!!!!!!!!!! 10/11 06:09
101F:推 ripeChu10141: XDDD小熊灵气啊 10/11 06:09
102F:→ thebig: 大局啦!!! 10/11 06:09
103F:→ hicker: 红雀[混乱]状况持续中 士气下降10% 10/11 06:09
104F:→ richard1003: 预言要成真?红鸟主场自爆 10/11 06:10
105F:推 KYOROD: 预言是绝对的 红鸟任命吧 10/11 06:10
106F:推 ericpitt: 这是什麽等级的守备? 大柠檬级的啦 10/11 06:10
107F:→ dog23698: 应该会盗垒,速度站 10/11 06:10
108F:→ freedomshit: 小球玩得好神 对手整个被搞乱 10/11 06:10
109F:→ dog23698: 抱歉,速度战 10/11 06:10
110F:→ ericpitt: 这是什麽队伍? 近十年来最强的球队 10/11 06:10
111F:推 a85370: 没一球打出内野,得3分~~ 10/11 06:10
112F:→ hicker: 最强队伍也是会中招的 10/11 06:11
113F:推 coon182: 红鸟也挡不住灵气 10/11 06:11
114F:推 IRPT001: 1904有什麽梁子 10/11 06:11
115F:推 mioloveme: Blitzkrieg!!! 10/11 06:12
116F:推 abc06: HR 5:1 10/11 06:13
117F:推 freedomshit: wwwwwww 10/11 06:13
118F:推 dandanhanbau: HRRRRRRRRRRRRRRRRRRRRRRRRRRRRRRRR 10/11 06:13
119F:→ nyyjeter8: 尻! 10/11 06:13
120F:→ hicker: CHC 5:1 STL 炸罗!!!!!!! 10/11 06:13
121F:推 dog23698: !!!hrrrrrrr 10/11 06:13
122F:推 liDong: 帅惨啦!!!!!!!!!!!!!!!!! 10/11 06:13
123F:推 KYOROD: 厚黑炸裂! 10/11 06:13
124F:推 coon182: 爽啦!!! 10/11 06:13
125F:推 ericpitt: 当你的注意力被垒上 被场上状况搞得很毛时 什麽都会发生 10/11 06:13
126F:推 thebig: 小熊!!!!!!! 10/11 06:13
127F:→ richard1003: Gone 彻底炸裂 10/11 06:13
128F:推 MrBigTree: 炸烈辣 10/11 06:13
129F:推 IRPT001: 我熊威武 10/11 06:13
130F:→ freedomshit: 老大.. 10/11 06:14
131F:→ nyyjeter8: 历史之壁 10/11 06:14
132F:推 honafire: 好嗨阿 10/11 06:14
133F:推 gotohikaru: 这局该怎麽说呢...XD 10/11 06:14
134F:→ hicker: CHC 5:1 STL 2上打完 [小熊今年拿冠军!!] 10/11 06:14
135F:→ chen06: 哇!一开电视就5:1 小熊今年拿冠军! 10/11 06:16
136F:推 MrBigTree: 闷了一百零七年,一次讨回来 10/11 06:17
137F:推 linshuhui: 小熊再输真的就要GG了 10/11 06:18
138F:推 abc06: NP 10/11 06:18
139F:推 dunhiller: NP 10/11 06:18
140F:推 dandanhanbau: 超级NP 10/11 06:18
141F:→ hicker: NP!! 10/11 06:18
142F:推 and5566183: NPPPPP 10/11 06:18
143F:推 liDong: 我熊威武 冲啊!!! NP 10/11 06:18
144F:→ MrBigTree: 游击开外挂 10/11 06:18
145F:推 KYOROD: 这守备日职可做不到 10/11 06:18
146F:推 yankees733: Russell超级守备 10/11 06:18
147F:推 chen06: 这样竟然也能扑到!!!!!! 10/11 06:19
148F:→ hicker: 小熊士气到顶 开启[铁壁]模式 10/11 06:19
149F:→ chen06: KKKKKK 10/11 06:19
150F:→ hicker: K也出来了 10/11 06:19
151F:→ chen06: 话说刚Gone不死鸟的球迷好像也蛮high der 10/11 06:20
152F:→ chen06: 不死鸟三上三下 现在连小熊投手也开外挂 XD 10/11 06:21
153F:→ coon182: 今天赢定了 10/11 06:21
154F:推 asdzxc1662: 是小熊迷吧 感觉很多 10/11 06:21
155F:推 thebig: 没了连胜士气,又来一波更高的士气 10/11 06:22
156F:→ thebig: 年轻就是热血! 10/11 06:23
157F:→ hicker: 红雀换投 Lynn登板 10/11 06:23
158F:推 abc06: 换投手了 LYNN 10/11 06:23
159F:推 honafire: 换投 太屌了 10/11 06:24
160F:推 pjharper: 这算烧先发吗 10/11 06:24
161F:→ nyyjeter8: 感觉没热好 10/11 06:24
162F:推 MrBigTree: bb 10/11 06:24
163F:→ hicker: 算 看来G4红雀要换先发了 10/11 06:25
164F:推 chen06: 第四战先发出来当第二场中继先送小熊1BB 0out 10/11 06:25
165F:推 KYOROD: 你感受到了百年怨念的份量了吗? 10/11 06:25
166F:推 abc06: 控球很烂 10/11 06:25
167F:→ honafire: 红雀今天爆炸吧XDDD 10/11 06:25
168F:推 freedomshit: 再多打几分阿 这场一定要拿下 10/11 06:26
169F:→ abc06: Single 13b 10/11 06:26
170F:→ nyyjeter8: 这场气势打出来就有戏了 下场又ACE 10/11 06:27
171F:推 MrBigTree: 战术成功率100% 10/11 06:27
172F:→ chen06: 三上 1、3B 0 out 10/11 06:27
173F:推 Ikaruwill: 无人出局一三垒有人,小熊加油啊 10/11 06:27
174F:推 pjharper: 西瓜今天神了~ 10/11 06:27
175F:推 ericpitt: 如果这系列赛小熊赢 这调度会被质疑 10/11 06:27
176F:推 KYOROD: 梅登老伯~如果赢球中午就吃肯德基 10/11 06:27
177F:→ chen06: 吃肯德基? 10/11 06:28
178F:→ hicker: 看来Lynn稳下来了 10/11 06:30
179F:推 chen06: 那麽多小熊球迷跑到不死鸟的主场看球 10/11 06:31
180F:→ hicker: 问一下 今天先发的Garcia 如果中二日G4先发 休息够吗?? 10/11 06:31
181F:推 abc06: 6:1 10/11 06:33
182F:推 dandanhanbau: 6:1 10/11 06:33
183F:→ hicker: CHC 6:1 STL 10/11 06:33
184F:→ abc06: 为什麽会把投手排第八棒 10/11 06:34
185F:推 freedomshit: 投手摆8棒 真的不适合 10/11 06:34
186F:→ dandanhanbau: 陈建君真的很鸟 10/11 06:35
187F:→ freedomshit: 给其他野手打安打机率还比较高 10/11 06:35
188F:推 chen06: 竟然趁换投多打几分 6:1 小熊领先 10/11 06:35
189F:→ chen06: 有点可惜 1、3B时 0out才回来1分 10/11 06:36
190F:→ hicker: 应该是想制造9-1连线 所以把投手放八棒?? 10/11 06:36
191F:推 he00125965: 这是梅登的风格 10/11 06:36
192F:→ hicker: 投手换代打 Lynn也下班了 10/11 06:40
193F:推 chen06: 不死鸟偷牛棚日 Lynn下再换投 会天罚吗? 10/11 06:40
194F:推 dunhiller: KKKKKKKKKKKK 10/11 06:40
195F:推 a23644910: KKKKKKK 10/11 06:40
196F:→ a23644910: 豪猛啊! 10/11 06:40
197F:→ dunhiller: 球棒还要回去 10/11 06:41
198F:推 Ikaruwill: 球棒还是得要还回去 10/11 06:41
199F:→ chen06: 球棒打到本垒後的球迷,这样竟然没有直接送给球迷 3OUT 10/11 06:42
200F:推 dandanhanbau: 稳 10/11 06:42
201F:推 a23644910: 三上三下 10/11 06:42
202F:推 freedomshit: 红鸟这场还不想放掉耶 这样调度真的好吗... 10/11 06:43
203F:→ nyyjeter8: 大幅领先 投超顺 10/11 06:43
204F:推 rover1213: 打到的是熊迷.. 10/11 06:43
205F:推 goro18: 球棒可以不还吧?! 10/11 06:43
206F:推 dog23698: 被打全垒打後九上九下,好猛呀!! 10/11 06:44
207F:推 chen06: 球棒可以不还吧?像界外球一样吗? XDD 10/11 06:45
208F:推 Ikaruwill: 可能是规定要球棒要还之前有看过一样的案例 10/11 06:45
209F:推 abc06: 又换投? 是要烧几个RP 10/11 06:46
210F:推 dunhiller: 有看够球迷不还,结果也没要回去 10/11 06:46
211F:→ nyyjeter8: 玩车轮战了 10/11 06:46
212F:推 OceanAdin: 老大继续低迷 10/11 06:49
213F:推 freedomshit: 老大完全熄火 10/11 06:49
214F:推 abc06: 老大弱爆了 10/11 06:49
215F:推 Ikaruwill: 老大客场季後赛拼命打铁,等回主场看能不能回稳 10/11 06:51
216F:推 a23644910: KKKKK 10/11 07:00
217F:→ chen06: KKKKK 小熊6:1领先 10/11 07:01
218F:推 dunhiller: kkkkkkkkkkkkkk 10/11 07:11
219F:推 chen06: 小熊先发今天开外卦(牛棚还一直热身) 10/11 07:12
220F:→ dunhiller: 再kkkkkkkkkkkkkk 10/11 07:12
221F:推 a23644910: 炸惹 10/11 07:13
222F:→ dunhiller: 炸裂 10/11 07:13
223F:推 KYOROD: 怎麽不是K就是HR 10/11 07:13
224F:→ chen06: 一说就又被炸 好险是阳春HR 10/11 07:13
225F:→ abc06: B2B 6:3 10/11 07:15
226F:→ abc06: 还有得打 10/11 07:15
227F:推 a23644910: b2b... 10/11 07:15
228F:→ chen06: B2B 10/11 07:15
229F:推 dunhiller: b2b 10/11 07:15
230F:推 honafire: QQ 10/11 07:15
231F:推 yankees733: B2B 10/11 07:15
232F:推 dog23698: B2B....... 10/11 07:15
233F:推 KYOROD: 战局真是瞬息万变 10/11 07:15
234F:→ ZhouGongJin: 熊熊撑住阿 10/11 07:15
235F:→ honafire: 真的第三轮就开始被尻 10/11 07:16
236F:→ KYOROD: 真是谨慎啊 马上就换了 10/11 07:16
237F:→ a23644910: 直接换 10/11 07:16
238F:推 abc06: 小熊这场输不得 10/11 07:18
239F:→ KYOROD: Kerry wood上了 10/11 07:19
240F:推 bibi6668: 追到差3分 比赛就还有得看 10/11 07:21
241F:推 miocte: 不死鸟会逆转嘛 让我们继续看下去 10/11 07:27
242F:推 OceanAdin: 主审抖一下XDDDDDDDDDDDDDD 10/11 07:27
243F:推 dunhiller: 主审忍住 10/11 07:28
244F:推 blickmon: 主审嘎里笋 10/11 07:31
245F:推 MrBigTree: 三上三下 10/11 07:36
246F:推 OceanAdin: 为了不让老大打DP 先跑到2B 10/11 07:40
247F:推 MrBigTree: 左中外野间落地 H?E? 10/11 07:41
248F:推 abc06: 要抓Laoda 10/11 07:44
249F:推 OceanAdin: 还是给老大打DP的机会= = 西瓜快发动双盗垒 10/11 07:44
250F:→ abc06: LaoDa DP球 10/11 07:44
251F:→ OceanAdin: 老大一整个鸟 他棒次要换一下了 10/11 07:44
252F:推 dandanhanbau: 老大 不意外 10/11 07:44
253F:→ thebig: 老大低迷到极点 10/11 07:45
254F:推 Ikaruwill: 老大差点又绝杀这半局 10/11 07:45
255F:推 miocte: wong球抓不稳 10/11 07:45
256F:推 KYOROD: 一直打铁 10/11 07:45
257F:推 MrBigTree: 隐形失误 1out 13B 10/11 07:45
258F:推 ghast159: 二垒那个是王建民? 10/11 07:45
259F:推 YESGOTO: 老大躲过DP 10/11 07:46
260F:嘘 LAGOD: 叫布莱恩的果然都是杂鱼,靠名气的 10/11 07:46
261F:→ OceanAdin: 他姓汪 广东念法的样子 10/11 07:46
262F:推 dai26: 要换红雀一哥了 10/11 07:47
263F:→ LAGOD: 布莱恩又要害球队输球吗 10/11 07:47
264F:推 wow999: 不死鸟今天失常 10/11 07:47
265F:推 miocte: 也是王 只是广东话拼音 10/11 07:47
266F:推 chen06: 老大季後赛到目前的表现... 10/11 07:48
267F:推 ZhouGongJin: 熊熊 10/11 07:48
268F:推 thebig: Rizzo差点补个双杀...... 10/11 07:48
269F:→ miocte: 可以挑战喔 10/11 07:48
270F:推 wow999: OUT 10/11 07:49
271F:推 jordan0329: 看起来out 10/11 07:49
272F:推 dai26: 我瑞竟然推打XDDD 10/11 07:49
273F:推 MrBigTree: 挑战了 10/11 07:49
274F:→ miocte: 果然挑战了 10/11 07:49
275F:推 qazzaq3977: 老大去坐板凳啦 10/11 07:50
276F:→ miocte: 温开水 我是温水煮熊熊 10/11 07:50
277F:推 YESGOTO: 出来混总是要还的 10/11 07:50
278F:→ nyyjeter8: 好像手快了点 10/11 07:50
279F:→ dai26: 指尖,哈哈哈 10/11 07:50
280F:→ MrBigTree: safe 10/11 07:50
281F:→ dai26: ㄎㄙㄔ冲啊! 10/11 07:51
282F:推 KYOROD: 历史的潮流你是挡不住的 10/11 07:51
283F:推 best306022: 神守备 10/11 07:52
284F:→ dai26: 一直在平飞~ 10/11 07:52
285F:推 wow999: NP 10/11 07:52
286F:推 if2: 衰啊 10/11 07:52
287F:→ lrh18: 挖靠 这球怎麽接到的. 10/11 07:52
288F:推 MrBigTree: np 10/11 07:52
289F:推 miocte: 东方的神秘力量~ 10/11 07:52
290F:推 LAGOD: 这那个杂鱼慢跑啊 10/11 07:52
291F:→ LAGOD: 这种态度,小熊输一书吧 10/11 07:53
292F:推 gash8830: 真的跑满慢的... 10/11 07:54
293F:推 wesley2223: 这球打出去这麽快... 10/11 07:55
294F:推 dai26: 先抓好XDDD 10/11 07:55
295F:推 thebig: 是球击的很强劲吧= = 10/11 07:56
296F:推 OceanAdin: Castro喔 他态度本来就不太好 10/11 07:56
297F:→ lrh18: 有差吗 那球那麽快 他也没真的跑很慢 10/11 07:56
298F:→ dai26: 早晚被卖掉 10/11 07:56
299F:推 abc06: 差一点 10/11 07:56
300F:推 wow999: 差点 10/11 07:56
301F:推 YESGOTO: 差一点 10/11 07:57
302F:推 MrBigTree: 差一公尺出墙 10/11 07:57
303F:推 KYOROD: 好险 裤子差点被吓掉 10/11 07:57
304F:推 dooroqen: 每个都想捞大棒.. 10/11 07:57
305F:推 horseface: 红鸟气势起来了!!!! 小熊传说加油!!! 10/11 07:58
306F:推 dai26: 米国的东西都好专业 10/11 07:59
307F:推 best306022: 加九手套XDD 10/11 07:59
308F:推 OceanAdin: 跑垒防护手套速度+5喔XD 10/11 07:59
309F:推 MrBigTree: 那手套是厨房用的吗XD 10/11 07:59
310F:推 if2: 水 10/11 08:00
311F:推 dunhiller: 可惜 10/11 08:00
312F:→ thebig: 水,没收! 10/11 08:00
313F:→ dai26: 还一个半局了 10/11 08:00
314F:推 YESGOTO: GG 10/11 08:00
315F:→ MrBigTree: 小熊该补个保险分了 10/11 08:00
316F:→ OceanAdin: 还89局 10/11 08:00
317F:推 k19880911: 看来很刺激 目前几比几啊?感谢 10/11 08:02
318F:推 OceanAdin: 招牌曲球又来了 10/11 08:05
319F:推 dai26: Cubs 6:3 cardinal 10/11 08:05
320F:推 MrBigTree: 6:3 小熊领先 10/11 08:05
321F:推 dai26: 赛杨也没拿过赛杨 10/11 08:07
322F:推 MrBigTree: 太高吧 = = 10/11 08:07
323F:推 YESGOTO: 拿香三振 10/11 08:07
324F:推 best306022: KKKKKKKKKKKKKKKKKKKKK 10/11 08:09
325F:推 OceanAdin: 三连斩 10/11 08:09
326F:→ william7713: 看kzone好像没几颗好球XD 10/11 08:10
327F:→ OceanAdin: 我猜今天会上软泥 西瓜我要看剧场 10/11 08:10
328F:推 ugly4: 太猛了 10/11 08:10
329F:推 YESGOTO: 好恶心的曲球 10/11 08:10
330F:推 tsmc1: 极品曲球............. 10/11 08:10
331F:推 zxasqw100: 真王牌 10/11 08:10
332F:→ thebig: 红雀王牌回来了.. 10/11 08:10
333F:推 Kapersky: M6 10/11 08:12
334F:→ Kapersky: M5 10/11 08:13
335F:推 MrBigTree: M5 10/11 08:13
336F:推 LAGOD: 这代打会不会太急 10/11 08:13
337F:推 dai26: 我罗守备令人安心,真不愧是超级新人 10/11 08:13
338F:推 MrBigTree: KKKKKKKKK 10/11 08:15
339F:→ dai26: 招牌 10/11 08:15
340F:推 LAGOD: 裁判赶下班了 10/11 08:16
341F:推 OceanAdin: 都是新人 10/11 08:16
342F:→ MrBigTree: 三球三振 10/11 08:16
343F:推 horseface: 95mile 伸卡!!! 10/11 08:16
344F:推 OceanAdin: 这只还能生存在mlb也蛮神 10/11 08:20
345F:推 dai26: 软动XDD 10/11 08:20
346F:推 hfi780: Broxton还在啊...... 10/11 08:21
347F:→ dai26: 镜头切到神A了 10/11 08:21
348F:推 OceanAdin: 轮不到老大打了 我还想再看他打一次 10/11 08:22
349F:→ dai26: 罗素守备看起来真的是s级的。超级流畅 10/11 08:22
350F:推 MrBigTree: WONG NP 10/11 08:23
351F:→ OceanAdin: 守备范围S+ 传球C 10/11 08:23
352F:推 dai26: 软动 10/11 08:25
353F:推 OceanAdin: 软冻up 10/11 08:25
354F:推 hfi780: 软动! 10/11 08:25
355F:推 MrBigTree: 软动XD 10/11 08:25
356F:推 OceanAdin: 一整队都超年轻 cl也才27 5年内都还能拚季後赛 10/11 08:28
357F:推 MrBigTree: K M2 10/11 08:30
358F:→ MrBigTree: 2OUT 10/11 08:30
359F:推 seaice: 大树是看哪一场 乱报 10/11 08:31
360F:推 OceanAdin: 拦住而已 10/11 08:31
361F:推 dai26: 可惜 10/11 08:31
362F:→ OceanAdin: 来支再见dp 10/11 08:32
363F:→ william7713: 这两颗投真准..XD 10/11 08:32
364F:推 MrBigTree: 看错 SORRY 10/11 08:32
365F:→ dai26: 老大!!!!! 10/11 08:32
366F:→ seaice: NP 10/11 08:33
367F:推 hfi780: 老大! 10/11 08:33
368F:推 if2: 还好抓到 10/11 08:33
369F:推 chen06: 2 out 小熊加油!!!!! 10/11 08:33
370F:推 purification: 守备很帮忙 10/11 08:33
371F:→ OceanAdin: 可惜 好险抓一个 10/11 08:33
372F:→ hicker: M1罗 10/11 08:33
373F:推 ahonchen: NPPPPPPPP 靠 有点感动 10/11 08:33
374F:→ Kapersky: 真的是天命 10/11 08:33
375F:推 DerekHolland: 原来老大是守备组 10/11 08:33
376F:→ chen06: 老大季後赛目前为止只守备组 XD 10/11 08:33
377F:推 IrvingKyrie: 老大不愧是年度防守第一队的 10/11 08:33
378F:推 lovecut: 老大 防守组 赞赞 10/11 08:33
379F:推 Ikaruwill: 老大怒刷一锅 10/11 08:34
380F:→ hfi780: 软动真准 10/11 08:34
381F:→ chen06: 可是老大打击也要发挥一下啊 不要一直K和DP XDD 10/11 08:34
382F:→ Kapersky: 是要追平什 差三分 = = 10/11 08:34
383F:→ DerekHolland: 不只守死对方 也守死自己的老大 10/11 08:34
384F:推 seaice: 希望老大回主场不要再打铁了 10/11 08:35
385F:推 MrBigTree: 再一好球!! 10/11 08:35
386F:推 dai26: 不举????? 10/11 08:35
387F:推 if2: 不举 10/11 08:35
388F:推 wow999: 吓到 10/11 08:35
389F:→ dai26: WOW 10/11 08:35
390F:→ chen06: 有好球空间耶 10/11 08:35
391F:→ if2: 赢 10/11 08:35
392F:→ hicker: CHC 6:3 STL GAMESET NLDS CHC 1:1 STL 10/11 08:35
393F:推 a23644910: 赢啦! 10/11 08:35
394F:→ william7713: 一直打给老大XDDD 10/11 08:35
395F:推 kimuratakuya: 刚刚那颗头盔是有延伸到脸那边吗? 10/11 08:35
396F:→ seaice: GameSet 10/11 08:35
397F:推 asdzxc1662: 赢了!! 10/11 08:35
398F:推 abc06: 1:1 平 10/11 08:35
399F:推 hfi780: 这球台湾就拉掉了XDDD 10/11 08:35
400F:推 OceanAdin: 红鸟主场 小熊迷好大声XDDDDDDDDDDDDDDDDDDDDDDDD 10/11 08:35
401F:→ ARodGodlike: 爽啦 你雀掰 10/11 08:35
402F:→ Kapersky: GAMESET 10/11 08:35
403F:推 satonoo: 我熊赢啦!!!! 10/11 08:35
404F:→ MrBigTree: 扳平了 10/11 08:35
405F:推 ZhouGongJin: 熊熊赢了,爽。 10/11 08:35
406F:→ Kapersky: 回小熊 在连下两场吧 10/11 08:36
407F:推 IrvingKyrie: 老大防守真强 10/11 08:36
408F:推 evilgenius: 爽 10/11 08:36
409F:推 BaGaJohn5566: 送 小熊要拿冠军了 10/11 08:36
410F:→ chen06: 守备组的老大 小熊今年拿冠军!!!!! 10/11 08:36
411F:→ hfi780: 2015小熊拿冠军! 10/11 08:36
412F:推 lovecut: 小熊冠军阿!!!!!!!!!!!!!! 10/11 08:36
413F:推 Darvish0831: 小熊回主场再拿两场吧!!!!下一场王牌阿瑞亚塔!! 10/11 08:36
414F:→ wow999: 老大防守组的XD 10/11 08:36
415F:→ IrvingKyrie: 当老大交出球权 谁还赢的了他的球队 10/11 08:36
416F:推 liDong: 恭喜小熊!!! 10/11 08:36
417F:推 he02341997: 小熊总冠军! 10/11 08:37
418F:→ Kapersky: 第三场应该是他吧 10/11 08:37
419F:→ OceanAdin: 至少不是监视器防守 打击真的要等他开窍 毕竟第一年 10/11 08:37
420F:推 hfi780: 再来要换神A了,小熊加油! 10/11 08:38
421F:推 Ikaruwill: 带一胜回主场意义重大,小熊今年拿冠军 10/11 08:39
422F:→ j3307002: 小熊今年拿冠军! 10/11 08:39
423F:推 hihi29: 小熊今年拿冠军! 10/11 08:40
424F:推 cmgsh42405: 小熊今年拿冠军! 10/11 08:42
425F:推 lingjj: 小熊今年拿冠军!!! 10/11 08:42
426F:→ Kitakami: 2015唯一支持芝加哥小熊 10/11 08:49
427F:推 ccckkkaa: 小熊总冠军!! 10/11 08:49
428F:推 chacha200623: 小熊今年拿冠军!!! 10/11 08:50
429F:→ TSbb: 今天海巡输了,可能会疯狂检举板友推文喔 10/11 08:53
430F:推 magicqw: 2015 唯一支持 小熊拿冠军 10/11 08:57
431F:推 acidrain: 小熊今年拿冠军! 10/11 09:03
432F:推 elvis51: 小熊今年拿冠军 10/11 09:06
433F:推 joyeszhang: 回到未来!!! 10/11 09:16
434F:推 lmf770410: P币晚点发喔,刚睡醒 10/11 09:28
435F:推 ttnakafzcm: 我的已经发了! 10/11 09:46
436F:推 TSbb: 收到惹,赞 10/11 09:55
437F:推 BosRedsucks: 小熊总冠军 10/11 09:57
438F:推 katanakiller: 小熊今年拿冠军!!! 10/11 10:30
439F:推 yushenlin: hicker好嗨 10/11 13:29







like.gif 您可能会有兴趣的文章
icon.png[问题/行为] 猫晚上进房间会不会有憋尿问题
icon.pngRe: [闲聊] 选了错误的女孩成为魔法少女 XDDDDDDDDDD
icon.png[正妹] 瑞典 一张
icon.png[心得] EMS高领长版毛衣.墨小楼MC1002
icon.png[分享] 丹龙隔热纸GE55+33+22
icon.png[问题] 清洗洗衣机
icon.png[寻物] 窗台下的空间
icon.png[闲聊] 双极の女神1 木魔爵
icon.png[售车] 新竹 1997 march 1297cc 白色 四门
icon.png[讨论] 能从照片感受到摄影者心情吗
icon.png[狂贺] 贺贺贺贺 贺!岛村卯月!总选举NO.1
icon.png[难过] 羡慕白皮肤的女生
icon.png阅读文章
icon.png[黑特]
icon.png[问题] SBK S1安装於安全帽位置
icon.png[分享] 旧woo100绝版开箱!!
icon.pngRe: [无言] 关於小包卫生纸
icon.png[开箱] E5-2683V3 RX480Strix 快睿C1 简单测试
icon.png[心得] 苍の海贼龙 地狱 执行者16PT
icon.png[售车] 1999年Virage iO 1.8EXi
icon.png[心得] 挑战33 LV10 狮子座pt solo
icon.png[闲聊] 手把手教你不被桶之新手主购教学
icon.png[分享] Civic Type R 量产版官方照无预警流出
icon.png[售车] Golf 4 2.0 银色 自排
icon.png[出售] Graco提篮汽座(有底座)2000元诚可议
icon.png[问题] 请问补牙材质掉了还能再补吗?(台中半年内
icon.png[问题] 44th 单曲 生写竟然都给重复的啊啊!
icon.png[心得] 华南红卡/icash 核卡
icon.png[问题] 拔牙矫正这样正常吗
icon.png[赠送] 老莫高业 初业 102年版
icon.png[情报] 三大行动支付 本季掀战火
icon.png[宝宝] 博客来Amos水蜡笔5/1特价五折
icon.pngRe: [心得] 新鲜人一些面试分享
icon.png[心得] 苍の海贼龙 地狱 麒麟25PT
icon.pngRe: [闲聊] (君の名は。雷慎入) 君名二创漫画翻译
icon.pngRe: [闲聊] OGN中场影片:失踪人口局 (英文字幕)
icon.png[问题] 台湾大哥大4G讯号差
icon.png[出售] [全国]全新千寻侘草LED灯, 水草

请输入看板名称,例如:BabyMother站内搜寻

TOP